Showing default

THOR 7, 40613

Orbit data source: Space-Track

THOR 7, 40613 is a payload satellite owned by Telenor (NO) in GEO that was launched on Sun, 26 Apr 2015 UTC via an ARIANE 5ECA launch vehicle from the French Guiana (FRGUI). Payload-class satellites include a variety of spacecraft equipped with specific instruments for various scientific and technological missions. These include communications satellites like Starlink; space stations such as the ISS; scientific satellites like the Hubble; Earth observation satellites from companies like Planet Labs, Umbra, and HawkEye 360; GPS; miniature CubeSats for education and research; and military/defense satellites.

Not visible in the next 10 days
Identifier
40613, 2015-022A
Orbit
GEO
Country
Flag of NONO / NOR
Related business
Manufacturer
SS/Loral (MDA)
Mission
Operational Commercial Communications
Bus & Motor
LS-1300, R-4D
Mass
4,590 kg wet, ~3,000 kg dry
Launch date (UTC)
2015-04-26 (11 years ago)
Launch vehicle
ARIANE 5ECA
Launch site
French Guiana (FRGUI)
Object type
Payload
Rocket body
Debris
Shape & HBR
Box + 2 Pan, 12.4 m
Radar Cross Section
33.950 m², Large (>1 m²)

Expand to show TLE details & history
Last TLE update: 7 hours ago

TLE from 7 hours ago
0 THOR 7
1 40613U 15022A   26062.08713992 -.00000025  00000-0  00000+0 0  9996
2 40613   0.0109 196.8977 0002662 144.1668 210.4865  1.00271005 39755
Epoch: 2026-03-03T02:05Z
TLE epoch observation values (Epoch: 2026-03-03T02:05:28.889Z)
Latitude
0.00984°
Longitude
-0.67027°
Altitude
35,796.021 km
Speed
3.074 km/s
True Right ascension
12h 46m 17s
True Declination
0° 00' 35"
Sunlit
Object was in daylight at epoch
Visualization orbit readout
Latitude
Unknown
Longitude
Unknown
Altitude
Unknown
Speed
Unknown
Apparent Right ascension
Unknown
Apparent Declination
Unknown
Sunlit
N/A
Visualization observer readout
Local Sidereal Time
12:19:58
Azimuth
Unknown
Elevation
Unknown
Doppler factor
Unknown
Orbital elements
Apogee altitude
35,799.109 km
Perigee altitude
35,776.659 km
Semi-major axis
42,166.021 km
Eccentricity
0.00027
Inclination
0.0109°
RAAN
196.8977°
Arg. of periapsis
144.1668°
True anomaly
210.47103°
Mean anomaly
210.4865°
Eccentric anomaly
210.47876°
Mean motion
0.25067 °/min
Orbital period
1,436.16 mins
BSTAR
0
Loading maneuver chart data...
Computing Atmospheric mass density...
Loading historical data...
Loading historical data...
Loading historical data...
Loading historical data...
Loading historical data...
Loading historical data...
Loading historical data...
Other satellites on launch #22 in the year 2015 (2015-04-26 UTC)

Documentation

Showing up to 5 results
|